Home > Weather > Aurora > Past weeks

Flag for U.S.A. Weather for the Past 2 Weeks in Aurora, Colorado, U.S.A.

Now
63 °F

Partly sunny.


Feels Like: 63 °F
Forecast: 33 / 52 °F
Wind: 8 mph from Northeast

Location: Buckley Air Force Base

Current Time: Feb 11, 2016 at 5:10:16 PM

Latest Report: Feb 11, 2016 at 3:58 PM


Visibility: 10 mi

Pressure: 30.06 "Hg (24.76 "Hg at 1647m altitude)

Humidity: 23%

Dew point: 24 °F

Location of AuroraLocation

Historic Weather in Aurora — Graph

°F

Aurora Temperature Yesterday

Maximum temperature yesterday: 65 °F (at 2:58 PM)
Minimum temperature yesterday: 38 °F (at 3:58 AM)
Average temperature yesterday: 50 °F

High & Low Weather Summary for the Past Weeks

 TemperatureHumidityPressure
High65 °F (Feb 10, 2:58 PM)100% (Jan 30, 7:01 PM)30.50 "Hg (Jan 30, 7:01 PM)
Low6 °F (Feb 3, 10:58 PM)14% (Feb 10, 2:58 PM)29.33 "Hg (Jan 30, 1:58 PM)
Average33 °F58%30.07 "Hg
* Reported Jan 27 1:58 PM — Feb 11 1:58 PM, Aurora, Weather by CustomWeather, © 2016

Note: Actual official high and low records may vary slightly from our data, if they occured in-between our weather recording intervals... More about our weather records

Advertising

Aurora Weather History for the Previous 24 Hours

 ConditionsComfort  
Time TempWeatherWind HumidityBarometerVisibility
1:58 PM
Thu, Feb 11
65 °FPartly sunny.18 mph20%30.01 "Hg10 mi
12:58 PM64 °FPartly sunny.17 mph19%30.01 "Hg10 mi
11:58 AM62 °FBroken clouds.16 mph18%30.02 "Hg10 mi
10:58 AM58 °FBroken clouds.9 mph18%30.05 "Hg10 mi
9:58 AM50 °FBroken clouds.8 mph30%30.07 "Hg10 mi
8:58 AM44 °FBroken clouds.8 mph31%30.10 "Hg10 mi
7:58 AM40 °FBroken clouds.12 mph38%30.10 "Hg10 mi
6:58 AM36 °FScattered clouds.10 mph42%30.08 "Hg10 mi
5:58 AM36 °FPassing clouds.9 mph42%30.09 "Hg10 mi
4:58 AM35 °FPassing clouds.12 mph43%30.09 "Hg10 mi
3:58 AM36 °FPassing clouds.13 mph42%30.08 "Hg10 mi
2:58 AM36 °FPassing clouds.10 mph44%30.09 "Hg10 mi
1:58 AM36 °FPassing clouds.9 mph45%30.10 "Hg10 mi
12:58 AM39 °FPassing clouds.7 mph36%30.10 "Hg10 mi
11:58 PM
Wed, Feb 10
46 °FPassing clouds.2 mph23%30.07 "Hg10 mi
10:58 PM45 °FPassing clouds.2 mph25%30.09 "Hg10 mi
9:58 PM47 °FPassing clouds.2 mph20%30.10 "Hg10 mi
8:58 PM47 °FPassing clouds.7 mph23%30.09 "Hg10 mi
7:58 PM48 °FPassing clouds.7 mph23%30.12 "Hg10 mi
6:58 PM56 °FPartly cloudy.18 mph16%30.08 "Hg10 mi
5:58 PM56 °FPartly cloudy.14 mph18%30.06 "Hg10 mi
Weather by CustomWeather, © 2016

See weather overviewHow to use our weather pages